Simultaneous Nadir Overpasses (SNOs) Predictions

Prediction of SNOs between LANDSAT-8 and METOP-B Satellite Orbit:

Table of predicted SNOs for the next 14.0 days since TLE Epoch: 9/5/2020
Index Date (LANDSAT-8) Time (LANDSAT-8) Lat,Lon (LANDSAT-8) SZA (LANDSAT-8 ) Date (METOP-B) Time (METOP-B) Lat,Lon (METOP-B) SZA (METOP-B ) Distance(km) Time Diff (sec)
1 09/06/2020 15:39:49 81.17, -14.23 77.26 09/06/2020 15:38:38 81.16, -14.34 77.22 1.82 71
2 09/06/2020 16:29:15 -81.19, 153.76 102.68 09/06/2020 16:29:17 -81.18, 153.61 102.70 2.56 2
3 09/09/2020 11:14:04 81.17, 52.35 78.36 09/09/2020 11:12:57 81.17, 52.25 78.32 1.73 67
4 09/09/2020 12:03:30 -81.20,-139.64 101.58 09/09/2020 12:03:36 -81.19,-139.76 101.59 2.25 6
5 09/12/2020 06:48:20 81.18, 118.90 79.47 09/12/2020 06:47:17 81.18, 118.82 79.43 1.59 63
6 09/12/2020 07:37:47 -81.18, -73.43 100.52 09/12/2020 07:37:57 -81.19, -73.53 100.52 1.77 10
7 09/15/2020 02:22:37 81.16,-174.93 80.53 09/15/2020 02:21:38 81.17,-175.01 80.50 1.34 59
8 09/15/2020 03:12:03 -81.19, -6.87 99.40 09/15/2020 03:12:17 -81.19, -6.93 99.40 1.04 14
9 09/17/2020 21:56:52 81.17,-108.41 81.65 09/17/2020 21:55:57 81.17,-108.46 81.62 0.89 55
